Flag for Cuba Weather past 2 weeks in Holguín, Cuba

Now
79 °F

Clear.


Feels Like: 82 °F
Forecast: 78 / 92 °F
Wind: 9 mph from East

Location: Holguin Civ / Mil

Current Time: Aug 29, 2014 at 4:51:30 AM

Latest Report: Aug 29, 2014 at 3:50 AM


Visibility: 10 mi

Pressure: 29.95 "Hg

Humidity: 89%

Dew point: 75 °F

Location of HolguínLocation

Historic Weather in Holguín — Graph

°F

Holguín temperature yesterday

Maximum temperature yesterday: 93 °F (at 3:50 PM)
Minimum temperature yesterday: 75 °F (at 4:52 AM)
Average temperature yesterday: 83 °F

Past Weeks' High & Low Weather Summary

 TemperatureHumidityPressure
High95 °F (Aug 14, 2:50 PM)100% (Aug 28, 6:02 AM)30.07 "Hg (Aug 28, 6:02 AM)
Low59 °F (Aug 26, 5:50 PM)36% (Aug 15, 3:52 PM)29.71 "Hg (Aug 24, 2:51 PM)
Average83 °F72%29.94 "Hg
* Reported Aug 14 2:50 AM — Aug 29 2:50 AM, Holguín, Weather by CustomWeather, © 2014

Note: Actual official high and low records may vary slightly from our data, if they occured in-between our weather recording intervals... More about our weather records

Advertising

Holguín weather history for previous 24 hours

 ConditionsComfort  
Time TempWeatherWind HumidityBarometerVisibility
2:50 AM
Aug 29
79 °FClear.6 mph94%29.98 "Hg10 mi
1:50 AM81 °FClear.8 mph89%29.98 "Hg10 mi
12:50 AM79 °FClear.8 mph94%29.98 "Hg10 mi
11:50 PM
Aug 28
81 °FPassing clouds.8 mph84%29.98 "HgN/A
10:51 PM81 °FClear.12 mph84%29.98 "Hg10 mi
9:51 PM81 °FClear.14 mph84%29.98 "Hg10 mi
8:50 PM81 °FPassing clouds.12 mph84%29.95 "HgN/A
7:50 PM82 °FPassing clouds.14 mph79%29.95 "HgN/A
6:50 PM86 °FPassing clouds.14 mph62%29.92 "HgN/A
5:50 PM88 °FScattered clouds.15 mph59%29.92 "HgN/A
4:50 PM91 °FScattered clouds.14 mph56%29.92 "HgN/A
3:50 PM93 °FScattered clouds.15 mph56%29.92 "HgN/A
2:50 PM91 °FPartly sunny.12 mph52%29.95 "HgN/A
1:50 PM90 °FPartly sunny.12 mph63%29.95 "HgN/A
12:50 PM90 °FScattered clouds.10 mph63%29.98 "HgN/A
11:50 AM88 °FScattered clouds.9 mph70%30.01 "HgN/A
10:50 AM86 °FScattered clouds.7 mph75%30.01 "HgN/A
9:50 AM84 °FPassing clouds.7 mph79%30.01 "Hg6 mi
8:50 AM81 °FFog.7 mph89%30.01 "Hg3 mi
8:00 AM77 °FFog.5 mph100%29.98 "Hg1 mi
6:50 AM75 °FFog.2 mph100%29.98 "Hg0 mi
6:02 AM75 °FFog.No wind100%29.98 "Hg0 mi
4:52 AM75 °FFog.5 mph94%29.98 "Hg4 mi
Weather by CustomWeather, © 2014

See weather overviewHow to use our weather pages